This demonstration page uses our WeatherBlox Daily Observations layout. Learn more.

Left ArrowRight Arrow

39.51506, -84.39828

Hourly Observations for October 7, 2015

Temp ( °F °C ) Dew Point ( °F °C ) Humidity (%) Winds ( mph kmh ) Pressure ( in mb ) Visibility ( mi km ) Precip ( " mm )
12:15 am 00:15 Partly Cloudy 60 15.3 56 13.2 87 87 N N/A 30.09 1019 10 16 N/A
12:35 am 00:35 Clear 59 14.8 55 12.8 88 88 N N/A 30.09 1019 10 16 N/A
12:55 am 00:55 Clear 60 15.3 56 13.5 89 89 N N/A 30.09 1019 10 16 N/A
1:15 am 01:15 Clear 60 15.3 56 13.5 89 89 N N/A 30.09 1019 10 16 N/A
1:35 am 01:35 Clear 60 15.3 56 13.5 89 89 N N/A 30.09 1019 10 16 N/A
1:55 am 01:55 Clear 58 14.2 54 12.4 89 89 N N/A 30.09 1019 10 16 N/A
2:15 am 02:15 Partly Cloudy 60 15.3 56 13.5 89 89 NNE 5 7 30.09 1019 10 16 N/A
2:35 am 02:35 Partly Cloudy 60 15.3 56 13.1 87 87 NNE 3 6 30.09 1019 10 16 N/A
2:55 am 02:55 Clear 60 15.3 56 13.3 88 88 N N/A 30.09 1019 10 16 N/A
3:15 am 03:15 Clear 60 15.3 56 13.3 88 88 N N/A 30.09 1019 10 16 N/A
3:35 am 03:35 Clear 60 15.3 56 13.3 88 88 NNE 3 6 30.09 1019 10 16 N/A
3:55 am 03:55 Clear 60 15.3 56 13.4 89 89 N N/A 30.09 1019 7 11 N/A
4:15 am 04:15 Clear 60 15.3 56 13.5 89 89 N N/A 30.09 1019 10 16 N/A
4:35 am 04:35 Partly Cloudy 59 14.8 55 12.8 88 88 N N/A 30.09 1019 10 16 N/A
4:55 am 04:55 Cloudy 57 13.8 53 11.9 88 88 N N/A 30.09 1019 7 11 N/A
5:15 am 05:15 Cloudy with Mist and Fog 57 14 54 12.2 89 89 N N/A 30.09 1019 5 8 N/A
5:35 am 05:35 Mostly Cloudy with Mist and Fog 57 13.8 54 12 89 89 N N/A 30.09 1019 3 4 N/A
5:55 am 05:55 Mostly Cloudy with Mist and Fog 57 14 54 12.2 89 89 ENE 3 6 30.09 1019 5 8 N/A
6:15 am 06:15 Mostly Cloudy with Mist and Fog 58 14.5 55 12.8 90 90 ENE 3 6 30.09 1019 5 8 N/A
6:35 am 06:35 Mostly Cloudy with Mist and Fog 58 14.2 55 12.5 90 90 NE 3 6 30.09 1019 5 8 N/A
6:55 am 06:55 Partly Cloudy with Mist and Fog 57 13.9 54 12.1 89 89 N N/A 30.12 1020 5 8 N/A
7:15 am 07:15 Clear with Mist and Fog 57 14 54 12.3 90 90 N N/A 30.12 1020 5 8 N/A
7:35 am 07:35 Clear with Mist and Fog 57 13.8 54 12.1 90 90 N N/A 30.12 1020 5 8 N/A
7:55 am 07:55 Mostly Cloudy with Mist and Fog 56 13.6 53 11.8 89 89 E 3 6 30.12 1020 1 2 N/A
8:15 am 08:15 Sunny with Mist and Fog 57 13.8 54 12.2 90 90 N N/A 30.12 1020 2 3 N/A
8:35 am 08:35 Sunny with Mist and Fog 59 15.2 56 13.6 90 90 N N/A 30.12 1020 3 4 N/A
8:55 am 08:55 Sunny with Mist and Fog 60 15.3 56 13.6 90 90 N N/A 30.15 1021 3 5 N/A
9:15 am 09:15 Sunny with Mist and Fog 61 16.2 58 14.3 89 89 NNE 3 6 30.15 1021 3 5 N/A
9:35 am 09:35 Hazy 63 17 58 14.3 84 84 NE 6 9 30.12 1020 4 6 N/A
9:55 am 09:55 Hazy 64 18 59 15 83 83 NE 5 7 30.12 1020 5 8 N/A
10:15 am 10:15 Hazy 67 19.5 60 15.6 78 78 NE 6 9 30.12 1020 5 8 N/A
10:35 am 10:35 Sunny 69 20.8 61 16 74 74 NNE 6 9 30.12 1020 7 11 N/A
10:55 am 10:55 Sunny 69 20.8 59 15 70 70 N 3 6 30.12 1020 7 11 N/A
11:15 am 11:15 Sunny 69 20.8 58 14.7 68 68 NE 3 6 30.12 1020 10 16 N/A
11:35 am 11:35 Sunny 72 22 60 15.3 66 66 NE 6 9 30.12 1020 10 16 N/A
11:55 am 11:55 Sunny 74 23.6 61 16.2 63 63 ENE 5 7 30.12 1020 10 16 N/A
12:15 pm 12:15 Sunny 74 23.6 60 15.6 61 61 ENE 3 6 30.12 1020 10 16 N/A
12:35 pm 12:35 Sunny 74 23.6 59 15.1 59 59 E 3 6 30.12 1020 10 16 N/A
12:55 pm 12:55 Partly Cloudy 74 23.6 58 14.5 57 57 N N/A 30.12 1020 10 16 N/A
1:15 pm 13:15 Sunny 75 23.8 57 14 54 54 N N/A 30.12 1020 10 16 N/A
1:35 pm 13:35 Sunny 77 25.1 59 15 54 54 N N/A 30.12 1020 10 16 N/A
1:55 pm 13:55 Partly Cloudy 77 25.1 58 14.4 52 52 N N/A 30.12 1020 10 16 N/A
2:15 pm 14:15 Sunny 77 25.1 58 14.2 51 51 N N/A 30.09 1019 10 16 N/A
2:55 pm 14:55 Sunny 79 26.2 57 13.9 47 47 N N/A 30.09 1019 10 16 N/A
3:15 pm 15:15 Partly Cloudy 80 26.5 57 13.7 45 45 WNW 5 7 30.09 1019 10 16 N/A
3:35 pm 15:35 Partly Cloudy 80 26.5 56 13.5 45 45 N N/A 30.06 1018 10 16 N/A
3:55 pm 15:55 Partly Cloudy 80 26.5 55 12.9 43 43 N N/A 30.06 1018 10 16 N/A
4:15 pm 16:15 Mostly Cloudy 80 26.5 54 12.4 42 42 NW 6 9 30.06 1018 10 16 N/A
4:35 pm 16:35 Mostly Cloudy 80 26.5 53 11.9 40 40 N N/A 30.06 1018 10 16 N/A
4:55 pm 16:55 Partly Cloudy 80 26.5 55 12.6 42 42 NW 3 6 30.06 1018 10 16 N/A
5:15 pm 17:15 Mostly Cloudy 80 26.5 54 12.3 41 41 N N/A 30.06 1018 10 16 N/A
5:35 pm 17:35 Cloudy 80 26.5 56 13.4 44 44 NW 3 6 30.06 1018 10 16 N/A
5:55 pm 17:55 Partly Cloudy 79 26 57 13.7 47 47 NNW 3 6 30.06 1018 10 16 N/A
6:15 pm 18:15 Sunny 77 25.1 54 12.3 45 45 N N/A 30.06 1018 10 16 N/A
6:35 pm 18:35 Sunny 76 24.6 58 14.7 54 54 N N/A 30.06 1018 10 16 N/A
6:55 pm 18:55 Sunny 74 23.6 61 16.3 64 64 N N/A 30.06 1018 10 16 N/A
7:15 pm 19:15 Clear 69 20.8 60 15.4 71 71 NNE 3 6 30.09 1019 10 16 N/A
7:35 pm 19:35 Clear 69 20.8 60 15.5 72 72 N 3 6 30.09 1019 10 16 N/A
7:55 pm 19:55 Partly Cloudy 69 20.8 58 14.7 68 68 NE 3 6 30.09 1019 10 16 N/A
8:15 pm 20:15 Clear 69 20.8 62 16.7 77 77 N N/A 30.09 1019 10 16 N/A
8:35 pm 20:35 Clear 67 19.6 59 15 75 75 N N/A 30.09 1019 10 16 N/A
8:55 pm 20:55 Clear 67 19.5 57 13.7 69 69 N N/A 30.09 1019 10 16 N/A
9:15 pm 21:15 Clear 66 18.8 56 13.6 72 72 N N/A 30.09 1019 10 16 N/A
9:35 pm 21:35 Clear 63 17.1 56 13.1 77 77 N N/A 30.12 1020 10 16 N/A
9:55 pm 21:55 Partly Cloudy 60 15.3 55 12.6 84 84 N N/A 30.15 1021 10 16 N/A
10:15 pm 22:15 Partly Cloudy 61 16.1 55 12.8 81 81 N N/A 30.15 1021 10 16 N/A
10:35 pm 22:35 Partly Cloudy 62 16.6 56 13.5 82 82 N N/A 30.12 1020 10 16 N/A
10:55 pm 22:55 Clear 60 15.3 54 12.3 82 82 N N/A 30.15 1021 10 16 N/A
11:15 pm 23:15 Partly Cloudy 60 15.3 54 12.3 82 82 N N/A 30.15 1021 10 16 N/A
11:35 pm 23:35 Clear 60 15.3 54 12.3 82 82 N N/A 30.15 1021 10 16 N/A
11:55 pm 23:55 Clear 60 15.3 55 12.5 84 84 NNE 3 6 30.12 1020 10 16 N/A

Powered by AerisWeather